Time,TemperatureF,DewpointF,PressureIn,WindDirection,WindDirectionDegrees,WindSpeedMPH,WindSpeedGustMPH,Humidity,HourlyPrecipIn,Conditions,Clouds,dailyrainin,SoftwareType,DateUTC
2013-07-13 00:00:00,52.9,51.8,29.85,NNW,338,2.0,10.0,96,0.00,,,0.00,WeatherCatV1.15B25,2013-07-13 07:00:00,
2013-07-13 00:05:00,52.9,51.8,29.84,SW,225,2.0,6.0,96,0.00,,,0.00,WeatherCatV1.15B25,2013-07-13 07:05:00,
2013-07-13 00:10:00,52.9,51.8,29.84,SW,225,2.0,6.0,96,0.00,,,0.00,WeatherCatV1.15B25,2013-07-13 07:10:00,
2013-07-13 00:15:00,52.9,51.8,29.84,SW,225,2.0,6.0,96,0.00,,,0.00,WeatherCatV1.15B25,2013-07-13 07:15:00,
2013-07-13 00:20:00,52.8,51.7,29.84,SW,225,2.0,6.0,96,0.00,,,0.00,WeatherCatV1.15B25,2013-07-13 07:20:00,
2013-07-13 00:25:00,52.8,51.7,29.84,SW,225,2.0,6.0,96,0.00,,,0.00,WeatherCatV1.15B25,2013-07-13 07:25:00,
2013-07-13 00:30:00,52.8,51.7,29.84,SW,225,2.0,6.0,96,0.00,,,0.00,WeatherCatV1.15B25,2013-07-13 07:30:00,
2013-07-13 00:35:00,52.8,51.7,29.84,SW,225,2.0,6.0,96,0.00,,,0.00,WeatherCatV1.15B25,2013-07-13 07:35:00,
2013-07-13 00:40:00,52.8,51.7,29.84,SW,225,2.0,6.0,96,0.00,,,0.00,WeatherCatV1.15B25,2013-07-13 07:40:00,
2013-07-13 00:45:00,52.8,51.7,29.84,SW,225,2.0,6.0,96,0.00,,,0.00,WeatherCatV1.15B25,2013-07-13 07:45:00,
2013-07-13 00:50:00,52.8,51.4,29.84,SW,225,2.0,8.0,95,0.00,,,0.00,WeatherCatV1.15B25,2013-07-13 07:50:00,
2013-07-13 00:55:00,52.8,51.4,29.84,SW,225,2.0,8.0,95,0.00,,,0.00,WeatherCatV1.15B25,2013-07-13 07:55:00,
2013-07-13 01:00:00,52.8,51.4,29.84,SW,225,2.0,8.0,95,0.00,,,0.00,WeatherCatV1.15B25,2013-07-13 08:00:00,
2013-07-13 01:05:00,52.7,51.3,29.85,SW,225,2.0,6.0,95,0.00,,,0.00,WeatherCatV1.15B25,2013-07-13 08:05:00,
2013-07-13 01:10:00,52.7,51.3,29.85,SW,225,2.0,6.0,95,0.00,,,0.00,WeatherCatV1.15B25,2013-07-13 08:10:00,
2013-07-13 01:15:00,52.7,51.3,29.85,SW,225,2.0,6.0,95,0.00,,,0.00,WeatherCatV1.15B25,2013-07-13 08:15:00,
2013-07-13 01:20:00,52.8,51.4,29.84,SW,225,2.0,9.0,95,0.00,,,0.00,WeatherCatV1.15B25,2013-07-13 08:20:00,
2013-07-13 01:25:00,52.8,51.4,29.84,SW,225,2.0,9.0,95,0.00,,,0.00,WeatherCatV1.15B25,2013-07-13 08:25:00,
2013-07-13 01:30:00,52.8,51.4,29.84,SW,225,2.0,9.0,95,0.00,,,0.00,WeatherCatV1.15B25,2013-07-13 08:30:00,
2013-07-13 01:35:00,52.7,51.3,29.84,SW,225,2.0,9.0,95,0.00,,,0.00,WeatherCatV1.15B25,2013-07-13 08:35:00,
2013-07-13 01:40:00,52.7,51.3,29.84,SW,225,2.0,9.0,95,0.00,,,0.00,WeatherCatV1.15B25,2013-07-13 08:40:00,
2013-07-13 01:45:00,52.7,51.3,29.84,SW,225,2.0,9.0,95,0.00,,,0.00,WeatherCatV1.15B25,2013-07-13 08:45:00,
2013-07-13 01:50:00,52.6,51.2,29.84,SW,225,2.0,6.0,95,0.00,,,0.00,WeatherCatV1.15B25,2013-07-13 08:50:00,
2013-07-13 01:55:00,52.6,51.2,29.84,SW,225,2.0,6.0,95,0.00,,,0.00,WeatherCatV1.15B25,2013-07-13 08:55:00,
2013-07-13 02:00:00,52.6,51.2,29.84,SW,225,2.0,6.0,95,0.00,,,0.00,WeatherCatV1.15B25,2013-07-13 09:00:00,
2013-07-13 02:05:00,52.6,51.2,29.85,SW,225,2.0,5.0,95,0.00,,,0.00,WeatherCatV1.15B25,2013-07-13 09:05:00,
2013-07-13 02:10:00,52.6,51.2,29.85,SW,225,2.0,5.0,95,0.00,,,0.00,WeatherCatV1.15B25,2013-07-13 09:10:00,
2013-07-13 02:15:00,52.6,51.2,29.85,SW,225,2.0,5.0,95,0.00,,,0.00,WeatherCatV1.15B25,2013-07-13 09:15:00,
2013-07-13 02:20:00,52.5,51.1,29.84,SW,225,2.0,7.0,95,0.00,,,0.00,WeatherCatV1.15B25,2013-07-13 09:20:00,
2013-07-13 02:25:00,52.5,51.1,29.84,SW,225,2.0,7.0,95,0.00,,,0.00,WeatherCatV1.15B25,2013-07-13 09:25:00,
2013-07-13 02:30:00,52.5,51.1,29.84,SW,225,2.0,7.0,95,0.00,,,0.00,WeatherCatV1.15B25,2013-07-13 09:30:00,
2013-07-13 02:35:00,52.5,51.1,29.84,SW,225,3.0,6.0,95,0.00,,,0.00,WeatherCatV1.15B25,2013-07-13 09:35:00,
2013-07-13 02:40:00,52.5,51.1,29.84,SW,225,3.0,6.0,95,0.00,,,0.00,WeatherCatV1.15B25,2013-07-13 09:40:00,
2013-07-13 02:45:00,52.5,51.1,29.84,SW,225,3.0,6.0,95,0.00,,,0.00,WeatherCatV1.15B25,2013-07-13 09:45:00,
2013-07-13 02:50:00,52.5,51.4,29.85,SW,225,3.0,9.0,96,0.00,,,0.00,WeatherCatV1.15B25,2013-07-13 09:50:00,
2013-07-13 02:55:00,52.5,51.4,29.85,SW,225,3.0,9.0,96,0.00,,,0.00,WeatherCatV1.15B25,2013-07-13 09:55:00,
2013-07-13 03:00:00,52.5,51.4,29.85,SW,225,3.0,9.0,96,0.00,,,0.00,WeatherCatV1.15B25,2013-07-13 10:00:00,
2013-07-13 03:05:00,52.4,51.3,29.85,SW,225,3.0,6.0,96,0.00,,,0.00,WeatherCatV1.15B25,2013-07-13 10:05:00,
2013-07-13 03:10:00,52.4,51.3,29.85,SW,225,3.0,6.0,96,0.00,,,0.00,WeatherCatV1.15B25,2013-07-13 10:10:00,
2013-07-13 03:15:00,52.4,51.3,29.85,SW,225,3.0,6.0,96,0.00,,,0.00,WeatherCatV1.15B25,2013-07-13 10:15:00,
2013-07-13 03:20:00,52.3,51.2,29.85,SW,225,3.0,8.0,96,0.00,,,0.00,WeatherCatV1.15B25,2013-07-13 10:20:00,
2013-07-13 03:25:00,52.3,51.2,29.85,SW,225,3.0,8.0,96,0.00,,,0.00,WeatherCatV1.15B25,2013-07-13 10:25:00,
2013-07-13 03:30:00,52.3,51.2,29.85,SW,225,3.0,8.0,96,0.00,,,0.00,WeatherCatV1.15B25,2013-07-13 10:30:00,
2013-07-13 03:35:00,52.3,51.2,29.85,SW,225,2.0,8.0,96,0.00,,,0.00,WeatherCatV1.15B25,2013-07-13 10:35:00,
2013-07-13 03:40:00,52.3,51.2,29.85,SW,225,2.0,8.0,96,0.00,,,0.00,WeatherCatV1.15B25,2013-07-13 10:40:00,
2013-07-13 03:45:00,52.3,51.2,29.85,SW,225,2.0,8.0,96,0.00,,,0.00,WeatherCatV1.15B25,2013-07-13 10:45:00,
2013-07-13 03:50:00,52.2,51.1,29.84,SSW,202,3.0,7.0,96,0.00,,,0.00,WeatherCatV1.15B25,2013-07-13 10:50:00,
2013-07-13 03:55:00,52.2,51.1,29.84,SSW,202,3.0,7.0,96,0.00,,,0.00,WeatherCatV1.15B25,2013-07-13 10:55:00,
2013-07-13 04:00:00,52.2,51.1,29.84,SSW,202,3.0,7.0,96,0.00,,,0.00,WeatherCatV1.15B25,2013-07-13 11:00:00,
2013-07-13 04:05:00,52.0,50.9,29.84,SW,225,3.0,7.0,96,0.00,,,0.00,WeatherCatV1.15B25,2013-07-13 11:05:00,
2013-07-13 04:10:00,52.0,50.9,29.84,SW,225,3.0,7.0,96,0.00,,,0.00,WeatherCatV1.15B25,2013-07-13 11:10:00,
2013-07-13 04:15:00,52.0,50.9,29.84,SW,225,3.0,7.0,96,0.00,,,0.00,WeatherCatV1.15B25,2013-07-13 11:15:00,
2013-07-13 04:20:00,52.1,51.3,29.84,SW,225,3.0,8.0,97,0.00,,,0.00,WeatherCatV1.15B25,2013-07-13 11:20:00,
2013-07-13 04:25:00,52.1,51.3,29.84,SW,225,3.0,8.0,97,0.00,,,0.00,WeatherCatV1.15B25,2013-07-13 11:25:00,
2013-07-13 04:30:00,52.1,51.3,29.84,SW,225,3.0,8.0,97,0.00,,,0.00,WeatherCatV1.15B25,2013-07-13 11:30:00,
2013-07-13 04:35:00,52.0,51.2,29.84,SW,225,3.0,8.0,97,0.00,,,0.00,WeatherCatV1.15B25,2013-07-13 11:35:00,
2013-07-13 04:40:00,52.0,51.2,29.84,SW,225,3.0,8.0,97,0.00,,,0.00,WeatherCatV1.15B25,2013-07-13 11:40:00,
2013-07-13 04:45:00,52.0,51.2,29.84,SW,225,3.0,8.0,97,0.00,,,0.00,WeatherCatV1.15B25,2013-07-13 11:45:00,
2013-07-13 04:50:00,52.0,50.9,29.84,SW,225,3.0,7.0,96,0.00,,,0.00,WeatherCatV1.15B25,2013-07-13 11:50:00,
2013-07-13 04:55:00,52.0,50.9,29.84,SW,225,3.0,7.0,96,0.00,,,0.00,WeatherCatV1.15B25,2013-07-13 11:55:00,
2013-07-13 05:09:00,52.0,50.9,29.84,SW,225,3.0,7.0,96,0.00,,,0.00,WeatherCatV1.15B25,2013-07-13 12:09:00,
2013-07-13 05:24:00,51.9,50.8,29.85,South,172,2.0,5.0,96,0.00,,,0.01,WeatherCatV1.15B25,2013-07-13 12:24:00,
2013-07-13 05:39:00,51.8,50.7,29.85,SW,225,3.0,5.0,96,0.00,,,0.01,WeatherCatV1.15B25,2013-07-13 12:39:00,
2013-07-13 05:54:00,51.8,51.0,29.85,WSW,242,3.0,5.0,97,0.00,,,0.01,WeatherCatV1.15B25,2013-07-13 12:54:00,
2013-07-13 06:09:00,51.7,50.9,29.86,SW,233,3.0,6.0,97,0.00,,,0.01,WeatherCatV1.15B25,2013-07-13 13:09:00,
2013-07-13 06:24:00,51.9,51.1,29.86,SW,225,2.0,7.0,97,0.00,,,0.01,WeatherCatV1.15B25,2013-07-13 13:24:00,
2013-07-13 06:39:00,52.0,51.2,29.86,SW,219,0.0,4.0,97,0.00,,,0.01,WeatherCatV1.15B25,2013-07-13 13:39:00,
2013-07-13 06:54:00,52.2,51.4,29.87,SE,127,6.0,7.0,97,0.00,,,0.01,WeatherCatV1.15B25,2013-07-13 13:54:00,
2013-07-13 07:09:00,52.8,52.0,29.87,NW,315,1.0,7.0,97,0.00,,,0.01,WeatherCatV1.15B25,2013-07-13 14:09:00,
2013-07-13 07:24:00,53.3,52.2,29.87,ENE,61,0.0,4.0,96,0.00,,,0.01,WeatherCatV1.15B25,2013-07-13 14:24:00,
2013-07-13 07:39:00,54.0,52.9,29.88,East,91,1.0,6.0,96,0.00,,,0.01,WeatherCatV1.15B25,2013-07-13 14:39:00,
2013-07-13 07:54:00,53.8,52.4,29.88,NNE,17,0.0,4.0,95,0.00,,,0.01,WeatherCatV1.15B25,2013-07-13 14:54:00,
2013-07-13 08:09:00,54.0,52.6,29.89,NNW,346,2.0,3.0,95,0.00,,,0.01,WeatherCatV1.15B25,2013-07-13 15:09:00,
2013-07-13 08:24:00,54.2,52.5,29.89,NNW,336,1.0,2.0,94,0.00,,,0.01,WeatherCatV1.15B25,2013-07-13 15:24:00,
2013-07-13 08:39:00,55.0,53.3,29.89,SSW,211,2.0,4.0,94,0.00,,,0.01,WeatherCatV1.15B25,2013-07-13 15:39:00,
2013-07-13 08:54:00,56.4,54.4,29.89,SSE,153,0.0,5.0,93,0.00,,,0.01,WeatherCatV1.15B25,2013-07-13 15:54:00,
2013-07-13 09:09:00,57.5,54.3,29.89,SW,223,3.0,7.0,89,0.00,,,0.01,WeatherCatV1.15B25,2013-07-13 16:09:00,
2013-07-13 09:24:00,57.6,54.4,29.89,South,181,3.0,5.0,89,0.00,,,0.01,WeatherCatV1.15B25,2013-07-13 16:24:00,
2013-07-13 09:39:00,57.7,54.2,29.89,SSW,213,4.0,8.0,88,0.00,,,0.01,WeatherCatV1.15B25,2013-07-13 16:39:00,
2013-07-13 09:54:00,58.2,54.7,29.89,SW,223,2.0,5.0,88,0.00,,,0.01,WeatherCatV1.15B25,2013-07-13 16:54:00,
2013-07-13 10:09:00,58.8,55.3,29.90,SSW,213,2.0,7.0,88,0.00,,,0.01,WeatherCatV1.15B25,2013-07-13 17:09:00,
2013-07-13 10:24:00,58.7,54.8,29.90,SW,223,3.0,7.0,87,0.00,,,0.01,WeatherCatV1.15B25,2013-07-13 17:24:00,
2013-07-13 10:39:00,59.1,55.2,29.90,SW,219,5.0,9.0,87,0.00,,,0.01,WeatherCatV1.15B25,2013-07-13 17:39:00,
2013-07-13 10:54:00,59.2,54.7,29.90,SW,216,3.0,6.0,85,0.00,,,0.01,WeatherCatV1.15B25,2013-07-13 17:54:00,
2013-07-13 11:09:00,59.6,54.8,29.90,SW,223,4.0,7.0,84,0.00,,,0.01,WeatherCatV1.15B25,2013-07-13 18:09:00,
2013-07-13 11:24:00,60.0,55.1,29.91,SW,228,3.0,5.0,84,0.00,,,0.01,WeatherCatV1.15B25,2013-07-13 18:24:00,
2013-07-13 11:39:00,60.5,55.0,29.91,SW,227,3.0,5.0,82,0.00,,,0.01,WeatherCatV1.15B25,2013-07-13 18:39:00,
2013-07-13 11:54:00,60.7,55.2,29.91,South,170,1.0,6.0,82,0.00,,,0.01,WeatherCatV1.15B25,2013-07-13 18:54:00,
2013-07-13 12:09:00,60.9,55.0,29.91,SW,226,4.0,5.0,81,0.00,,,0.01,WeatherCatV1.15B25,2013-07-13 19:09:00,
2013-07-13 12:24:00,61.3,55.1,29.91,SSE,153,1.0,6.0,80,0.00,,,0.01,WeatherCatV1.15B25,2013-07-13 19:24:00,
2013-07-13 12:39:00,60.9,54.7,29.91,SSW,213,4.0,10.0,80,0.00,,,0.01,WeatherCatV1.15B25,2013-07-13 19:39:00,
2013-07-13 12:54:00,60.5,54.3,29.91,SSW,204,3.0,5.0,80,0.00,,,0.01,WeatherCatV1.15B25,2013-07-13 19:54:00,
2013-07-13 13:09:00,60.3,54.4,29.91,SW,235,5.0,6.0,81,0.00,,,0.01,WeatherCatV1.15B25,2013-07-13 20:09:00,
2013-07-13 13:24:00,60.7,54.5,29.90,WSW,254,5.0,7.0,80,0.00,,,0.01,WeatherCatV1.15B25,2013-07-13 20:24:00,
2013-07-13 13:39:00,60.8,54.6,29.90,SW,227,4.0,7.0,80,0.00,,,0.01,WeatherCatV1.15B25,2013-07-13 20:39:00,
2013-07-13 13:54:00,60.9,54.3,29.90,SW,217,4.0,6.0,79,0.00,,,0.01,WeatherCatV1.15B25,2013-07-13 20:54:00,
2013-07-13 14:09:00,60.4,53.9,29.90,SW,236,2.0,6.0,79,0.00,,,0.01,WeatherCatV1.15B25,2013-07-13 21:09:00,
2013-07-13 14:24:00,61.0,54.1,29.89,WSW,241,0.0,10.0,78,0.00,,,0.01,WeatherCatV1.15B25,2013-07-13 21:24:00,
2013-07-13 14:39:00,61.0,53.4,29.89,WSW,252,5.0,9.0,76,0.00,,,0.01,WeatherCatV1.15B25,2013-07-13 21:39:00,
2013-07-13 14:54:00,60.6,53.7,29.89,WSW,254,4.0,6.0,78,0.00,,,0.01,WeatherCatV1.15B25,2013-07-13 21:54:00,
2013-07-13 15:09:00,59.5,53.0,29.89,NW,310,0.0,5.0,79,0.00,,,0.01,WeatherCatV1.15B25,2013-07-13 22:09:00,
2013-07-13 15:24:00,60.2,53.0,29.88,WSW,252,3.0,5.0,77,0.00,,,0.01,WeatherCatV1.15B25,2013-07-13 22:24:00,
2013-07-13 15:39:00,60.3,53.4,29.88,WSW,241,3.0,5.0,78,0.00,,,0.01,WeatherCatV1.15B25,2013-07-13 22:39:00,
2013-07-13 15:54:00,60.5,52.9,29.87,SW,229,2.0,8.0,76,0.00,,,0.01,WeatherCatV1.15B25,2013-07-13 22:54:00,
2013-07-13 16:09:00,59.7,52.8,29.87,WSW,240,6.0,12.0,78,0.00,,,0.01,WeatherCatV1.15B25,2013-07-13 23:09:00,
2013-07-13 16:24:00,58.6,52.4,29.87,SW,219,3.0,10.0,80,0.00,,,0.01,WeatherCatV1.15B25,2013-07-13 23:24:00,
2013-07-13 16:39:00,58.4,52.3,29.86,SW,225,4.0,10.0,80,0.00,,,0.01,WeatherCatV1.15B25,2013-07-13 23:39:00,
2013-07-13 16:54:00,58.7,52.5,29.86,WSW,244,6.0,6.0,80,0.00,,,0.01,WeatherCatV1.15B25,2013-07-13 23:54:00,
2013-07-13 17:09:00,57.3,52.5,29.85,WSW,240,6.0,8.0,84,0.00,,,0.01,WeatherCatV1.15B25,2013-07-14 00:09:00,
2013-07-13 17:24:00,55.6,52.7,29.85,SW,220,4.0,6.0,90,0.00,,,0.01,WeatherCatV1.15B25,2013-07-14 00:24:00,
2013-07-13 17:39:00,56.5,53.6,29.85,NNW,344,2.0,6.0,90,0.00,,,0.01,WeatherCatV1.15B25,2013-07-14 00:39:00,
2013-07-13 17:54:00,56.7,53.5,29.84,SSW,193,1.0,10.0,89,0.00,,,0.01,WeatherCatV1.15B25,2013-07-14 00:54:00,
2013-07-13 18:09:00,57.1,54.2,29.84,SW,215,5.0,5.0,90,0.00,,,0.01,WeatherCatV1.15B25,2013-07-14 01:09:00,
2013-07-13 18:24:00,57.1,54.2,29.84,SSW,196,0.0,5.0,90,0.00,,,0.01,WeatherCatV1.15B25,2013-07-14 01:24:00,
2013-07-13 18:39:00,57.7,54.5,29.84,ENE,77,2.0,4.0,89,0.00,,,0.01,WeatherCatV1.15B25,2013-07-14 01:39:00,
2013-07-13 18:54:00,58.6,54.1,29.85,SSE,159,1.0,8.0,85,0.00,,,0.01,WeatherCatV1.15B25,2013-07-14 01:54:00,
2013-07-13 19:09:00,56.5,53.3,29.84,SW,234,4.0,11.0,89,0.00,,,0.01,WeatherCatV1.15B25,2013-07-14 02:09:00,
2013-07-13 19:24:00,56.0,53.1,29.85,WSW,238,4.0,7.0,90,0.00,,,0.01,WeatherCatV1.15B25,2013-07-14 02:24:00,
2013-07-13 19:39:00,57.5,52.4,29.85,SW,225,0.0,7.0,83,0.00,,,0.01,WeatherCatV1.15B25,2013-07-14 02:39:00,
2013-07-13 19:54:00,56.0,51.9,29.85,NNW,348,0.0,6.0,86,0.00,,,0.01,WeatherCatV1.15B25,2013-07-14 02:54:00,
2013-07-13 20:09:00,57.3,50.8,29.86,East,86,0.0,6.0,79,0.00,,,0.01,WeatherCatV1.15B25,2013-07-14 03:09:00,
2013-07-13 20:24:00,57.7,51.9,29.86,ESE,107,0.0,6.0,81,0.00,,,0.01,WeatherCatV1.15B25,2013-07-14 03:24:00,
2013-07-13 20:39:00,56.8,51.7,29.86,East,97,0.0,2.0,83,0.00,,,0.01,WeatherCatV1.15B25,2013-07-14 03:39:00,
2013-07-13 20:54:00,56.2,51.7,29.86,NNW,341,4.0,8.0,85,0.00,,,0.01,WeatherCatV1.15B25,2013-07-14 03:54:00,
2013-07-13 21:09:00,56.1,51.0,29.87,SW,231,0.0,4.0,83,0.00,,,0.01,WeatherCatV1.15B25,2013-07-14 04:09:00,
2013-07-13 21:24:00,55.3,51.8,29.87,NW,313,7.0,9.0,88,0.00,,,0.01,WeatherCatV1.15B25,2013-07-14 04:24:00,
2013-07-13 21:39:00,54.1,51.5,29.87,WSW,244,7.0,9.0,91,0.00,,,0.01,WeatherCatV1.15B25,2013-07-14 04:39:00,
2013-07-13 21:54:00,54.2,51.6,29.88,NNE,18,1.0,6.0,91,0.00,,,0.01,WeatherCatV1.15B25,2013-07-14 04:54:00,
2013-07-13 22:09:00,54.9,51.4,29.88,SSW,206,3.0,4.0,88,0.00,,,0.01,WeatherCatV1.15B25,2013-07-14 05:09:00,
2013-07-13 22:24:00,55.1,51.3,29.89,North,350,3.0,4.0,87,0.00,,,0.01,WeatherCatV1.15B25,2013-07-14 05:24:00,
2013-07-13 22:39:00,54.4,51.2,29.89,NNW,332,5.0,5.0,89,0.00,,,0.01,WeatherCatV1.15B25,2013-07-14 05:39:00,
2013-07-13 22:54:00,53.3,51.3,29.89,WSW,246,3.0,7.0,93,0.00,,,0.01,WeatherCatV1.15B25,2013-07-14 05:54:00,
2013-07-13 23:09:00,52.8,51.1,29.89,SW,232,3.0,7.0,94,0.00,,,0.01,WeatherCatV1.15B25,2013-07-14 06:09:00,
2013-07-13 23:24:00,52.6,51.2,29.89,SW,235,4.0,8.0,95,0.00,,,0.01,WeatherCatV1.15B25,2013-07-14 06:24:00,
2013-07-13 23:35:00,52.8,51.4,29.89,WSW,238,3.0,6.0,95,0.00,,,0.00,WeatherCatV1.15B25,2013-07-14 06:35:00,
2013-07-13 23:39:00,52.7,51.3,29.89,SW,231,3.0,5.0,95,0.00,,,0.01,WeatherCatV1.15B25,2013-07-14 06:39:00,
2013-07-13 23:40:00,52.7,51.3,29.89,SW,236,3.0,5.0,95,0.00,,,0.00,WeatherCatV1.15B25,2013-07-14 06:40:00,
2013-07-13 23:45:00,52.8,51.4,29.89,SW,233,3.0,6.0,95,0.00,,,0.00,WeatherCatV1.15B25,2013-07-14 06:45:00,
2013-07-13 23:50:00,52.7,51.3,29.89,SW,225,3.0,11.0,95,0.00,,,0.00,WeatherCatV1.15B25,2013-07-14 06:50:00,
2013-07-13 23:55:00,52.7,51.3,29.89,SW,225,3.0,11.0,95,0.00,,,0.00,WeatherCatV1.15B25,2013-07-14 06:55:00,